Location: Chrząstowo
(52.0654°N, 17.1290°E)
Time: 02:28:44
(UTC+01:00)

ISS - Pass Details

Date: 29 January 2019
Orbit: 403 x 411 km, 51.6° (Epoch: 17 February)

Event Time Altitude Azimuth Distance (km) Brightness Sun altitude
Rises 19:52:51 0° 276° (W) 2,340 1.2 -30.5°
Reaches altitude 10° 19:54:56 10° 275° (W) 1,480 -0.1 -30.8°
Enters shadow 19:55:16 12° 274° (W) 1,341 -0.4 -30.9°
